Regional Weather Roundup
Issued by NWS

Home | Current Version | Previous Version | Text Only | Print | Product List | Glossary Off
Versions: 1 2 3 4 5 6 7 8 9 10 11 12 13 14 15 16 17 18 19 20 21 22 23 24 25 26 27 28 29 30 31 32 33 34 35 36 37 38 39 40 41 42 43 44 45 46 47 48 49 50

000
ASUS44 KMEG 281500
RWRTN
TENNESSEE HOURLY STATE WEATHER ROUNDUP
NATIONAL WEATHER SERVICE MEMPHIS TN
1000 AM CDT FRI JUL 28 2017

TNZ002-004-019-021-049-052-054-088>092-281600-
WEST TENNESSEE

CITY           SKY/WX    TMP DP  RH WIND       PRES   REMARKS
MEMPHIS INTL   CLOUDY    77  76  96 SW8       29.90S
NWS MEMPHIS      N/A     78 N/A N/A MISG        N/A
JACKSON        CLOUDY    83  78  85 W8        29.87S HX  93
$$

TNZ008-025-027-028-033-062-065-066-281600-
NORTH MIDDLE TENNESSEE

CITY           SKY/WX    TMP DP  RH WIND       PRES   REMARKS
NASHVILLE      CLOUDY    81  76  84 VRB5      29.86F
CLARKSVILLE    CLOUDY    78  74  87 CALM      29.85S
SMYRNA         CLOUDY    79  75  87 SW5       29.86F
CROSSVILLE     HVY RAIN  71  69  93 CALM      29.93F FOG
$$

TNZ061-075-076-078-094-096-097-281600-
SOUTH MIDDLE TENNESSEE

CITY           SKY/WX    TMP DP  RH WIND       PRES   REMARKS
TULLAHOMA      CLOUDY    73  72  94 SW10      29.91F
WINCHESTER     CLOUDY    72  72 100 W7        29.92S
MCMINNVILLE    CLOUDY    77  77 100 SW7       29.89F
$$

TNZ017-018-042-046-047-281600-
NORTHEAST TENNESSEE

CITY           SKY/WX    TMP DP  RH WIND       PRES   REMARKS
TRI CITIES     CLOUDY    74  72  93 CALM      29.91F FOG
$$

TNZ012-013-036-069-073-074-281600-
CENTRAL EAST TENNESSEE

CITY           SKY/WX    TMP DP  RH WIND       PRES   REMARKS
KNOXVILLE      LGT RAIN  77  72  84 SW12      29.89S
OAK RIDGE      CLOUDY    79  71  76 VRB7      29.89S
GATLINBURG     PTSUNNY   81  70  69 SW3       29.88F
$$

TNZ083-085-099-281600-
SOUTHEAST TENNESSEE

CITY           SKY/WX    TMP DP  RH WIND       PRES   REMARKS
CHATTANOOGA    LGT RAIN  76  74  93 S6        29.91F FOG
$$

SKY/WX REPORTED AS FAIR MEANS FEW OR NO CLOUDS BELOW
12 THOUSAND FEET.




USA.gov is the U.S. government's official web portal to all federal, state and local government web resources and services.